User: anonymous   Login
Location: Clanezzo
(45.7500°N, 9.6000°E)
Time: 03:39:30
(UTC+00:00)
Language:

Cosmos 773 Rocket - Orbit

View from above orbital plane
View from above orbital plane
View from above satellite
View from above satellite

Ground track
Ground track

The orbit data is extracted from the following two-line orbital elements,

1 08344U 75094B   21207.51944683 -.00000005  00000-0  67908-5 0  9997
2 08344  74.0553 240.7868 0020753 127.9780 232.3253 14.39185888401225
Epoch (UTC): 26 July 2021 12:28:00
Eccentricity: 0.0020753
inclination: 74.0553°
perigee height: 746 km
apogee height: 776 km
right ascension of ascending node: 240.7868°
argument of perigee: 127.9780°
revolutions per day: 14.39185888
mean anomaly at epoch: 232.3253°
orbit number at epoch: 40122

The dashed part of the orbit path shows where the satellite is in the earth's shadow,  

DLR